YC0TBU-11 Weather Reports


Display with metric or nautical units.
time (UTC)temp
F
wind
direction
speed
MPH
gust
MPH
rain 1hr
in
rain 24hr
in
rain mn
in
humidity
%
barometer
mb
20260509195307 98 0.0 0.0 0.00 0.00 0.00 44 1010.4
20260509192307 98 0.0 0.0 0.00 0.00 0.00 45 1010.6
20260509185307 97 0.0 0.0 0.00 0.00 0.00 46 1011.0
20260509182307 97 0.0 0.0 0.00 0.00 0.00 46 1011.7
20260509175307 97 0.0 0.0 0.00 0.00 0.00 46 1012.0
20260509172307 97 0.0 0.0 0.00 0.00 0.00 46 1012.2
20260509165307 96 0.0 0.0 0.00 0.00 0.00 46 1012.4
20260509162312 97 0.0 0.0 0.00 0.00 0.00 46 1012.3
20260509155250 98 0.0 0.0 0.00 0.00 0.00 44 1012.2
20260509152251 103 0.0 0.0 0.00 0.00 0.00 44 1012.2
20260509145251 99 0.0 0.0 0.00 0.00 0.00 44 1012.3
20260509142142 97 0.0 0.0 0.00 0.00 0.00 45 1012.0
20260509135142 97 0.0 0.0 0.00 0.00 0.00 46 1012.0
20260509132142 98 0.0 0.0 0.00 0.00 0.00 45 1011.6
20260509125142 96 0.0 0.0 0.00 0.00 0.00 46 1011.3
20260509122142 96 0.0 0.0 0.00 0.00 0.00 45 1011.2
20260509115142 95 0.0 0.0 0.00 0.00 0.00 47 1010.8
20260509112142 98 0.0 0.0 0.00 0.00 0.00 43 1010.5
20260509105141 103 0.0 0.0 0.00 0.00 0.00 39 1009.8
20260509102142 104 0.0 0.0 0.00 0.00 0.00 37 1009.3
20260509095142 104 0.0 0.0 0.00 0.00 0.00 36 1009.1
20260509092147 105 0.0 0.0 0.00 0.00 0.00 36 1009.0
20260509085125 108 0.0 0.0 0.00 0.00 0.00 34 1008.4
20260509082124 107 0.0 0.0 0.00 0.00 0.00 35 1008.5
20260509075124 103 0.0 0.0 0.00 0.00 0.00 40 1008.8
20260509072124 104 0.0 0.0 0.00 0.00 0.00 38 1009.1
20260509065124 107 0.0 0.0 0.00 0.00 0.00 34 1009.3
20260509062124 107 0.0 0.0 0.00 0.00 0.00 33 1009.6
20260509055130 107 0.0 0.0 0.00 0.00 0.00 33 1009.7
20260509052108 106 0.0 0.0 0.00 0.00 0.00 34 1010.2
20260509045107 105 0.0 0.0 0.00 0.00 0.00 35 1010.6
20260509042108 103 0.0 0.0 0.00 0.00 0.00 36 1011.1
20260509035107 104 0.0 0.0 0.00 0.00 0.00 36 1011.5
20260509032107 102 0.0 0.0 0.00 0.00 0.00 38 1011.9
20260509025107 101 0.0 0.0 0.00 0.00 0.00 40 1012.0
20260509022107 100 0.0 0.0 0.00 0.00 0.00 42 1012.2
20260509015107 98 0.0 0.0 0.00 0.00 0.00 44 1012.3
20260509012113 98 0.0 0.0 0.00 0.00 0.00 44 1012.4
20260509005050 97 0.0 0.0 0.00 0.00 0.00 45 1012.1
20260509002050 98 0.0 0.0 0.00 0.00 0.00 44 1011.8
20260508235050 97 0.0 0.0 0.00 0.00 0.00 45 1011.4
20260508232055 98 0.0 0.0 0.00 0.00 0.00 44 1011.2
20260508225017 97 0.0 0.0 0.00 0.00 0.00 45 1010.7
20260508222016 97 0.0 0.0 0.00 0.00 0.00 46 1010.4
20260508215017 98 0.0 0.0 0.00 0.00 0.00 45 1010.2
20260508212016 98 0.0 0.0 0.00 0.00 0.00 45 1010.1
20260508205016 98 0.0 0.0 0.00 0.00 0.00 45 1010.3
20260508201943 98 0.0 0.0 0.00 0.00 0.00 45 1010.5